Weather History for Craig, CO

Change the Weather History Date:

Saturday, July 13, 2013

  Actual Average Record
Temperature  
Mean Temperature 71 °F 67 °F  
Max Temperature 85 °F 88 °F 98 °F (2003)
Min Temperature 56 °F 46 °F 37 °F (1997)
Degree Days  
Heating Degree Days 0 1  
Month to date heating degree days 0 17  
Since 1 June heating degree days 88 192  
Since 1 July heating degree days 0 17  
Cooling Degree Days 6 2  
Month to date cooling degree days 83 22  
Year to date cooling degree days 127 32  
Since 1 June cooling degree days 127 32  
Growing Degree Days 22 (Base 50)    
Moisture  
Dew Point 52 °F    
Average Humidity 57    
Maximum Humidity 84    
Minimum Humidity 30    
Precipitation  
Precipitation 0.01 in 0.02 in 0.01 in (2007)
Month to date precipitation 0.05 0.48  
Year to date precipitation 5.30 7.99  
Sea Level Pressure  
Sea Level Pressure 30.01 in    
Wind  
Wind Speed 5 mph (WNW)    
Max Wind Speed 21 mph    
Max Gust Speed 26 mph    
Visibility 10 miles    
Events Rain , Thunderstorm    
T = Trace of Precipitation, MM = Missing Value Source: NWS Daily Summary

Daily Weather History Graph

Daily Weather History Graph

Search for Another Location

Airport:

Trip Planner

Search our weather history database for the weather conditions in past years. The results will help you decide how hot, cold, wet, or windy it might be!

Date:

Astronomy

Jul. 13, 2013 Rise Set
Actual Time 5:51 AM MDT 8:40 PM MDT
Civil Twilight 5:18 AM MDT 9:12 PM MDT
Nautical Twilight 4:38 AM MDT 9:53 PM MDT
Astronomical Twilight 3:51 AM MDT 10:39 PM MDT
Moon 11:11 AM MDT (7/13) 11:20 PM MDT (7/13)
Length of Visible Light 15h 53m
Length of Day
14h 49m
Waxing Crescent, 26% of the Moon is Illuminated
Jul 13
Waxing Crescent
Jul 15
First Quarter
Jul 22
Full
Jul 29
Last Quarter
Aug 6
New

Hourly Weather History & Observations

Time (MDT) Temp. Dew Point Humidity Pressure Visibility Wind Dir Wind Speed Gust Speed Precip Events Conditions
12:53 AM 63.0 °F 55.9 °F 78% 29.95 in 10.0 mi ESE 4.6 mph - N/A   Clear
1:53 AM 64.0 °F 55.0 °F 73% 29.94 in 10.0 mi ENE 5.8 mph - N/A   Partly Cloudy
2:53 AM 63.0 °F 55.0 °F 75% 29.94 in 10.0 mi East 5.8 mph - N/A   Scattered Clouds
3:53 AM 60.1 °F 55.0 °F 83% 29.96 in 10.0 mi SW 5.8 mph - N/A   Mostly Cloudy
4:53 AM 61.0 °F 55.0 °F 81% 29.95 in 10.0 mi ENE 3.5 mph - N/A   Partly Cloudy
5:53 AM 61.0 °F 55.0 °F 81% 29.99 in 10.0 mi ESE 3.5 mph - N/A   Overcast
6:53 AM 62.1 °F 55.9 °F 80% 30.01 in 10.0 mi Calm Calm - 0.00 in   Scattered Clouds
7:53 AM 64.0 °F 54.0 °F 70% 30.02 in 10.0 mi East 6.9 mph - N/A   Mostly Cloudy
8:53 AM 66.9 °F 55.0 °F 66% 30.04 in 10.0 mi ENE 5.8 mph - N/A   Overcast
9:53 AM 71.1 °F 54.0 °F 55% 30.04 in 10.0 mi Calm Calm - N/A   Mostly Cloudy
10:53 AM 77.0 °F 53.1 °F 43% 30.02 in 10.0 mi NW 4.6 mph - N/A   Partly Cloudy
11:53 AM 78.1 °F 52.0 °F 40% 30.01 in 10.0 mi NW 8.1 mph - N/A   Mostly Cloudy
12:53 PM 80.1 °F 51.1 °F 36% 30.00 in 10.0 mi West 6.9 mph - N/A   Mostly Cloudy
1:53 PM 82.0 °F 51.1 °F 34% 29.97 in 10.0 mi SSW 9.2 mph - N/A   Partly Cloudy
2:31 PM 80.6 °F 51.8 °F 37% 30.20 in 10.0 mi WNW 8.1 mph - N/A Thunderstorm Mostly Cloudy
2:53 PM 80.1 °F 52.0 °F 38% 29.96 in 10.0 mi West 10.4 mph - N/A Thunderstorm Mostly Cloudy
3:56 PM 71.6 °F 53.6 °F 53% 30.24 in - SW 11.5 mph - 0.00 in Rain , Thunderstorm Light Thunderstorms and Rain
4:24 PM 73.4 °F 57.2 °F 57% 30.22 in 10.0 mi Calm Calm - 0.00 in   Mostly Cloudy
4:53 PM 79.0 °F 53.1 °F 40% 29.97 in 10.0 mi West 6.9 mph - 0.00 in   Clear
5:53 PM 80.1 °F 46.9 °F 31% 29.96 in 10.0 mi Calm Calm - 0.01 in   Clear
6:53 PM 78.1 °F 48.9 °F 36% 29.97 in 10.0 mi North 15.0 mph 23.0 mph N/A   Partly Cloudy
7:53 PM 73.9 °F 48.0 °F 40% 29.99 in 10.0 mi North 10.4 mph 17.3 mph N/A   Partly Cloudy
8:53 PM 70.0 °F 48.0 °F 46% 30.01 in 10.0 mi South 3.5 mph - N/A   Clear
9:53 PM 62.1 °F 50.0 °F 65% 30.04 in 10.0 mi South 3.5 mph - N/A   Clear
10:53 PM 60.1 °F 48.9 °F 67% 30.04 in 10.0 mi Calm Calm - N/A   Partly Cloudy
11:53 PM 59.0 °F 51.1 °F 75% 30.04 in 10.0 mi Calm Calm - N/A   Partly Cloudy